Location: Unspecified
(0.0000°N, 0.0000°E)
Time: 23:14:34
(UTC+00:00)

KAITUO 1B - Pass Details

Date: 18 July 2019
Orbit: 497 x 516 km, 97.4° (Epoch: 17 August)

Event Time Altitude Azimuth Distance (km) Brightness Sun altitude
Rises 05:13:35 0° 39° (NE) 2,594 ? -12.3°
Reaches altitude 10° 05:16:13 10° 60° (ENE) 1,717 ? -11.7°
Maximum altitude 05:18:41 17° 102° (ESE) 1,341 ? -11.1°
Drops below altitude 10° 05:21:09 10° 143° (SE) 1,730 ? -10.5°
Sets 05:23:48 0° 164° (SSE) 2,623 ? -9.9°
